Lapse_Rate
4.1 3.2 2.2 1.5 1.6 1.8 1.8 1.2 1.2 0.7 0.1 -0.4 -0.9 -1.0 -0.8 -0.0 1.6 2.0 0.4 -1.3 0.0 0.9 3.8 3.5 3.3 2.5 3.2 2.7 6.5 4.3 5.2 3.2 4.9 6.5 6.5 6.5 6.5 6.5 6.5 6.5 6.5 6.5 6.5 6.5 6.5 6.5 6.5 5.2 6.4 6.5 5.5 3.5 1.8 1.6
3.0 2.1 1.7 1.5 1.7 1.8 1.3 1.4 0.9 0.4 -0.8 -1.5 -1.3 -0.8 -0.5 0.2 0.8 2.3 2.3 -0.9 -1.7 -0.2 3.7 3.1 3.5 2.7 2.3 2.5 0.7 2.2 3.9 4.1 2.9 6.5 6.5 6.5 6.5 6.5 6.5 6.5 6.5 6.5 6.5 6.5 6.5 6.5 5.4 4.2 5.2 3.5 2.6 2.8 1.8 1.2
2.0 1.6 1.6 2.0 2.1 1.8 1.5 1.0 0.1 -0.5 -1.4 -1.1 -0.8 -0.6 -0.3 0.0 0.7 0.8 -0.2 -2.4 -2.0 0.4 3.5 3.4 4.4 3.7 1.9 0.7 0.8 2.0 0.6 2.1 1.7 0.4 4.2 6.5 6.5 6.5 6.5 6.5 6.5 6.5 5.6 6.5 6.5 6.4 5.8 3.3 2.3 2.8 3.0 2.7 2.5 1.7
2.0 2.3 2.4 2.1 1.9 1.7 1.2 -0.1 -1.0 -0.9 -1.0 -1.0 -0.2 -0.4 -0.5 -0.6 -0.5 -1.6 -1.6 -2.9 -2.6 -2.3 1.2 3.7 2.7 3.5 2.2 1.4 2.3 1.1 -1.1 -1.6 -1.7 -0.9 2.8 6.5 6.5 5.2 6.5 6.5 6.5 5.8 6.1 6.5 6.5 5.9 4.2 2.8 1.7 2.0 1.7 2.0 1.8 1.9
2.8 2.2 2.0 1.7 1.5 1.4 0.0 -0.4 -0.5 -0.7 -0.9 -0.9 -0.7 0.7 0.4 -0.1 -0.1 -0.8 -2.7 -3.2 -3.0 0.3 3.9 1.4 2.9 2.8 1.7 1.6 0.9 0.3 -0.0 -0.2 0.2 1.3 5.8 6.5 2.5 5.7 5.7 6.2 6.5 4.9 6.5 6.5 6.5 3.5 4.8 3.7 3.3 1.1 1.3 0.8 2.1 2.6
2.7 3.0 2.3 1.5 1.5 0.3 -0.4 -0.2 -0.1 -0.5 -0.8 -1.2 -1.3 -1.0 0.9 0.3 0.9 0.1 1.0 -0.9 -2.9 -2.7 -0.7 6.3 2.4 3.1 2.0 1.6 0.8 0.9 1.1 0.0 0.2 0.6 2.3 2.3 3.8 3.9 6.5 6.5 4.6 3.7 2.5 2.7 4.2 4.1 2.9 3.0 1.8 1.7 1.9 2.7 3.4 2.9
2.6 2.4 2.2 2.4 1.6 0.2 -0.1 0.2 0.3 0.1 -0.4 -0.9 -0.5 0.3 0.8 0.6 -0.9 -0.5 1.0 -0.2 -2.9 -2.8 -2.2 5.5 4.6 2.6 1.9 1.5 -0.0 1.1 0.6 0.9 1.6 2.0 3.5 4.6 4.2 4.4 6.5 6.5 5.1 3.8 3.4 3.1 3.3 3.3 4.4 2.3 3.3 2.3 3.5 3.1 3.7 3.6
2.3 2.0 1.9 2.2 1.3 0.8 0.5 0.7 0.7 0.7 1.1 0.2 -0.2 0.0 -0.3 -0.6 -1.0 0.5 -0.6 -1.5 -2.2 -1.5 -2.4 6.5 6.5 2.7 2.2 1.7 2.0 1.1 0.8 1.9 3.4 4.8 4.6 5.6 5.0 5.0 6.5 6.1 5.1 4.7 4.0 4.1 3.9 4.0 4.2 3.8 3.1 3.0 3.6 4.2 4.2 4.3
2.3 2.3 2.1 2.0 1.1 0.8 1.3 1.3 1.3 1.7 2.2 2.0 1.7 1.5 0.7 -0.2 1.0 1.9 0.3 -0.0 -1.1 0.2 1.3 4.9 6.5 6.5 3.3 3.7 3.0 3.0 3.2 6.3 4.0 5.6 5.4 4.7 6.5 6.5 6.5 6.1 5.2 4.4 4.8 4.6 4.3 3.9 3.4 3.5 4.3 5.1 5.0 4.4 4.2 4.7
2.4 2.6 2.7 2.8 2.6 2.1 1.9 2.1 1.9 2.5 2.7 2.2 1.0 1.2 0.8 0.8 0.5 0.7 1.5 0.5 -0.5 -0.1 1.2 6.2 4.6 6.5 5.6 3.7 5.1 4.0 5.0 6.5 6.5 6.3 5.4 6.5 6.5 5.7 5.5 5.2 4.6 3.7 4.0 4.7 5.5 4.8 4.3 4.8 4.9 5.2 5.0 5.4 6.2 6.6
2.5 2.3 2.5 2.8 2.8 2.9 3.1 3.2 3.4 3.6 3.3 1.1 0.4 1.8 1.3 0.7 1.2 -0.3 2.6 4.3 5.0 5.2 4.4 4.9 4.7 6.1 4.5 6.3 6.5 4.2 6.5 6.4 6.5 6.3 6.5 6.5 6.5 6.5 5.8 5.0 4.9 4.6 4.1 4.1 3.9 4.7 5.5 5.6 5.2 5.2 5.2 5.3 4.9 4.4
4.5 3.8 2.7 2.3 2.7 3.0 3.1 3.5 3.7 1.4 0.7 1.9 0.7 0.9 0.1 0.9 1.7 6.0 6.5 5.8 6.4 6.5 4.8 5.2 5.0 5.3 4.1 3.0 6.1 5.6 6.5 6.5 6.5 5.7 6.5 6.5 6.5 7.2 6.2 5.8 5.9 5.9 5.6 5.4 4.9 4.8 4.7 4.5 4.9 5.0 4.2 3.9 3.9 3.2
4.5 4.2 4.2 3.6 2.8 2.4 2.4 2.6 2.9 2.0 1.3 1.1 0.9 1.3 3.1 3.6 6.5 6.5 6.5 6.5 6.5 5.6 4.8 4.5 6.0 3.8 4.0 3.9 5.5 6.4 6.5 6.5 5.3 6.5 6.5 6.5 6.9 6.7 6.4 6.6 6.1 5.4 5.1 5.5 5.1 4.9 4.0 4.1 4.1 4.2 3.3 3.6 1.4 3.0
4.5 4.4 4.1 4.0 4.0 3.3 3.0 2.7 2.7 2.5 2.4 2.5 4.4 6.5 6.5 6.5 6.5 6.5 6.5 6.5 5.5 4.9 4.5 4.0 5.2 5.3 4.4 6.0 6.3 6.5 6.5 6.4 6.5 6.5 6.5 6.5 6.6 6.7 6.2 6.3 5.5 4.2 3.0 4.4 5.1 5.2 4.2 2.6 2.6 1.4 1.0 0.5 0.4 1.9
4.4 4.1 4.1 3.7 4.2 3.8 3.4 3.3 3.3 2.3 3.0 4.6 5.3 6.5 6.5 6.2 5.9 5.6 5.1 5.4 4.8 4.5 4.2 4.9 5.4 5.6 6.4 6.5 6.5 6.5 6.5 6.5 6.5 6.5 6.5 6.2 5.7 6.0 4.7 5.3 4.7 4.4 2.1 3.2 4.2 3.7 1.5 1.3 1.5 2.5 2.3 2.0 2.5 0.4
4.5 3.8 3.0 3.6 3.5 3.4 3.0 2.9 1.5 1.8 4.1 5.6 5.6 6.4 6.0 6.4 6.5 6.1 5.6 5.8 4.8 4.6 4.2 4.8 6.4 6.5 6.5 6.5 6.5 6.5 6.5 6.5 6.5 6.4 5.9 5.3 5.1 4.4 4.8 5.0 5.1 4.8 4.4 4.1 4.1 4.4 3.9 1.8 1.4 3.9 2.5 2.0 0.6 -0.0
3.7 3.7 3.4 3.6 3.3 3.5 2.4 0.5 -0.1 3.5 5.6 5.6 6.3 5.4 5.6 5.8 6.2 5.9 5.2 5.2 4.5 5.3 6.5 5.9 6.5 6.5 5.9 6.5 6.5 6.5 6.5 6.5 5.9 5.1 4.5 5.1 5.2 4.9 4.9 5.1 4.2 4.9 5.0 4.8 4.7 4.5 4.4 3.5 1.2 2.3 3.4 3.9 3.2 3.0
2.6 2.4 3.2 3.1 2.8 1.8 0.3 0.4 2.3 5.4 6.4 5.5 6.2 5.6 5.2 5.0 5.5 5.2 4.7 3.8 4.4 5.9 4.3 6.1 5.9 6.5 6.5 6.5 6.5 6.5 4.7 3.6 3.2 3.6 4.1 5.1 5.0 4.5 4.8 5.1 4.7 4.5 4.1 3.7 2.6 3.3 2.9 2.4 2.8 2.9 3.2 3.1 2.7 2.8
3.3 2.9 2.9 2.4 1.6 -0.0 2.1 2.8 3.2 6.0 6.0 5.5 5.1 4.5 4.6 4.4 4.0 3.7 4.1 3.6 1.4 1.3 2.2 2.0 6.5 6.5 6.5 3.3 2.5 6.0 4.1 1.6 3.7 4.1 3.9 3.6 3.6 3.5 3.1 3.0 3.0 3.0 3.0 3.0 2.8 2.7 3.0 3.4 3.5 3.3 3.1 3.1 3.2 4.2
3.5 3.3 2.7 2.2 2.2 1.3 3.9 2.9 2.8 5.1 6.4 5.9 5.2 5.1 5.0 5.0 4.2 4.4 4.8 4.0 1.9 1.5 2.8 5.9 5.5 2.8 2.2 1.8 1.1 1.1 1.1 1.0 1.9 2.4 2.4 2.3 2.1 2.6 2.2 2.2 2.2 2.5 2.1 2.1 2.5 1.7 2.3 2.3 2.6 2.9 3.2 3.7 4.1 4.5
2.3 2.1 1.9 1.1 -0.1 1.9 2.8 3.7 5.5 5.1 5.3 6.0 5.5 5.7 5.7 5.3 5.6 5.3 5.3 4.0 1.9 1.7 3.8 2.9 1.6 1.6 1.9 1.2 0.7 0.6 1.6 2.5 2.0 1.1 1.6 3.0 2.5 2.2 1.9 1.5 1.3 1.4 1.1 1.1 1.2 1.2 1.0 1.8 2.5 2.4 1.4 2.0 2.9 2.9
2.4 2.4 -0.1 0.8 1.2 1.8 3.1 3.6 4.9 4.2 5.0 5.5 5.3 5.5 5.7 5.9 5.6 5.5 5.0 4.3 4.3 4.1 4.1 4.4 5.0 4.5 3.6 2.4 1.8 1.5 1.7 1.8 1.8 1.4 1.6 1.4 1.8 1.3 1.1 0.4 -0.1 -0.5 0.1 0.2 1.2 0.7 0.6 1.8 1.4 1.1 0.9 1.4 2.2 3.0
1.7 1.2 2.5 1.3 1.8 2.6 5.0 3.9 4.3 5.6 6.2 5.8 5.2 5.8 5.8 5.5 5.4 5.1 5.9 6.1 5.4 5.0 4.3 3.8 2.9 3.2 2.2 2.6 2.6 1.6 1.9 2.5 1.4 1.3 1.4 1.1 1.1 0.5 1.7 -0.0 -0.7 -1.4 -0.8 0.3 0.7 1.2 0.6 -0.7 0.2 -0.5 0.5 0.9 1.6 1.6
2.9 3.7 4.9 6.0 2.5 4.5 1.4 3.8 3.1 2.6 5.0 6.1 6.4 6.5 6.4 5.8 5.1 5.3 6.5 6.1 6.0 5.0 4.5 4.2 3.7 3.1 3.4 3.3 2.1 2.2 2.5 2.6 1.7 1.0 1.1 1.9 1.8 1.4 1.4 1.5 0.6 -0.0 -0.0 -0.1 -0.5 -1.7 -1.3 -2.6 -2.2 -0.7 -0.4 -0.2 0.5 1.4
2.3 4.1 4.6 6.1 5.9 1.7 6.4 6.4 5.2 5.0 6.5 6.4 6.5 6.5 5.8 3.8 6.5 6.5 6.5 6.0 5.4 4.2 3.6 4.1 4.5 4.6 3.9 3.7 3.4 2.6 2.3 3.0 3.0 2.2 1.5 0.8 -0.3 0.5 1.6 1.9 1.4 0.6 -0.5 -2.8 -3.0 -3.4 -3.2 -2.6 -2.9 -1.8 -0.7 -0.2 0.9 1.6
6.5 4.8 4.3 1.4 2.2 6.5 5.8 6.5 6.5 6.5 6.5 6.5 6.2 4.9 2.8 5.6 6.5 6.5 6.6 5.7 5.7 5.0 3.7 3.8 3.8 3.9 3.7 4.1 3.6 2.7 1.9 1.6 2.7 2.0 1.1 1.1 0.5 -1.3 -2.3 -2.6 -2.4 -1.5 -0.6 -4.6 -4.9 -3.4 -2.6 -2.1 -1.5 -1.6 -1.0 0.2 1.4 2.5
6.5 4.9 2.9 4.4 5.8 5.4 2.8 2.1 4.4 4.0 6.5 6.5 6.4 5.9 6.5 6.5 6.5 6.6 6.3 5.2 5.6 4.5 4.0 3.8 5.0 4.7 3.2 2.1 1.4 0.7 0.1 0.0 1.2 2.0 1.6 1.6 1.1 0.5 -2.2 -3.5 -2.4 -0.7 -0.2 -1.5 -4.5 -6.2 -4.2 -2.2 -1.3 -0.2 0.8 1.8 2.3 3.2
4.1 2.2 6.2 3.5 4.4 5.1 6.1 6.1 6.5 6.5 6.5 5.8 5.5 6.5 6.5 6.5 6.5 6.2 5.9 5.1 3.8 3.4 2.6 1.9 1.9 2.0 1.7 1.1 0.5 0.5 -0.3 0.2 0.0 0.0 -0.1 -0.4 -0.9 -2.7 -3.2 -4.5 -3.0 -0.7 -2.7 -4.0 -6.3 -4.7 -4.0 -1.9 0.3 1.7 2.8 3.8 2.2 1.2
4.4 3.8 3.5 4.1 5.2 5.5 6.0 6.2 6.3 6.3 5.9 5.8 6.3 6.5 6.4 5.4 3.8 4.2 4.4 4.0 3.5 3.2 2.5 1.9 0.8 0.7 0.5 -0.4 -1.5 -2.3 -3.0 -3.5 -2.0 -1.9 -2.8 -5.3 -5.4 -2.7 -2.8 -6.2 -6.4 -5.3 -5.3 -6.1 -3.4 -0.3 0.8 1.2 2.0 2.1 0.6 1.0 1.7 0.6
3.5 3.3 3.1 3.1 5.4 6.5 4.1 4.8 4.4 4.0 3.6 3.3 3.4 4.3 4.7 4.3 3.3 2.8 3.3 3.0 2.2 0.9 -0.7 -1.7 -2.4 -0.9 -4.8 -4.6 -4.7 -3.8 -6.6 -8.6 -6.9 -4.6 -4.7 -5.3 -3.4 -2.1 -5.8 -7.0 -6.0 -5.4 -6.2 -8.7 -6.3 -5.1 -3.8 -5.3 -4.2 -4.7 -4.0 -4.1 -4.5 -5.0
3.2 4.0 4.9 5.2 4.8 4.5 4.5 5.1 5.1 5.1 4.7 2.1 2.0 2.6 4.5 3.3 2.4 2.3 1.4 -0.0 -0.1 -1.6 -2.9 -4.1 -4.3 -8.3 -5.9 -5.8 -6.4 -5.7 -4.3 -6.7 -7.8 -5.8 -5.7 -6.3 -4.5 -5.9 -6.1 -5.8 -4.7 -5.4 -8.8 -9.0 -9.2 -8.7 -8.0 -7.1 -7.7 -7.6 -6.3 -4.6 -4.3 -4.8
4.8 5.0 5.0 6.5 4.2 2.0 -1.0 2.2 1.9 2.9 3.1 4.6 3.3 1.4 0.1 0.6 0.5 1.9 0.5 -0.4 -1.3 -2.3 -4.3 -8.1 -5.3 -3.8 -6.4 -7.3 -8.7 -8.5 -4.9 -6.5 -6.6 -6.2 -5.7 -5.4 -4.7 -2.8 -1.8 -1.6 -2.7 -4.8 -8.4 -8.2 -8.3 -7.9 -7.6 -6.7 -7.3 -7.2 -7.0 -5.9 -5.9 -5.7
2.3 -0.9 0.3 -1.1 0.9 1.0 -0.6 -2.8 -3.1 -0.1 2.6 3.3 0.4 -0.5 -0.7 0.7 3.0 2.1 0.4 -2.2 -1.8 -3.4 -4.8 -6.3 -7.3 -8.7 -7.5 -6.7 -6.6 -7.0 -4.5 -3.0 -2.2 -2.0 -0.5 -0.1 0.6 0.6 0.4 -0.6 -2.5 -6.1 -7.0 -7.6 -8.0 -8.6 -6.6 -5.6 -5.8 -6.2 -6.3 -6.5 -5.9 -5.5
Wind_Speed
24 23 20 22 21 19 16 16 13 14 14 13 11 9 13 20 15 3 2 2 3 3 2 3 3 5 4 3 5 5 4 3 3 4 3 3 3 5 2 4 6 7 6 4 3 2 7 6 4 7 6 1 6 7
23 21 20 21 18 14 17 16 14 14 13 15 11 9 13 17 16 11 3 0 0 5 3 1 3 2 1 5 6 1 4 4 5 4 1 3 2 2 2 3 1 2 6 5 9 6 4 6 4 3 2 3 5 6
20 20 19 18 17 16 16 16 15 14 13 13 11 10 14 14 12 7 4 1 4 4 3 3 3 5 6 3 2 5 2 5 3 2 4 3 3 4 4 5 3 4 4 3 2 4 7 9 6 6 5 6 4 4
18 18 19 19 18 16 16 17 15 14 13 12 14 15 15 16 12 10 4 2 4 4 4 3 4 4 8 5 2 3 7 6 6 3 3 3 3 4 3 3 3 4 4 4 5 9 5 9 8 6 5 4 4 4
19 18 18 19 19 16 17 17 15 13 14 14 15 17 18 21 23 14 5 3 3 4 4 2 3 6 8 6 10 9 8 6 3 2 2 3 3 4 1 2 3 5 7 4 6 8 4 6 4 4 7 7 7 7
20 19 18 20 17 16 19 16 13 13 15 13 11 11 12 9 5 4 4 4 7 3 4 2 2 5 6 7 10 8 4 4 3 3 2 1 2 3 4 3 8 3 4 4 5 1 5 3 4 2 5 6 4 7
19 20 20 17 15 19 19 15 13 15 15 16 15 17 17 18 7 5 4 3 10 2 3 3 3 4 4 4 3 3 4 3 3 2 2 2 1 3 3 4 4 4 6 5 4 4 3 4 3 5 7 9 13 13
20 20 20 16 15 21 18 14 13 13 15 16 18 22 25 26 16 4 4 11 8 5 4 4 2 3 6 2 2 3 2 2 4 2 1 2 2 2 3 4 7 7 7 4 5 2 3 1 6 8 9 12 14 12
20 19 18 17 16 19 14 12 11 11 10 10 10 9 6 6 3 2 16 12 6 4 3 3 4 3 3 2 1 3 2 2 2 1 1 3 1 3 4 10 9 7 5 7 2 5 7 10 11 11 13 14 14 9
22 19 18 16 16 14 11 10 8 7 9 9 6 4 3 2 10 7 5 4 5 4 3 3 1 1 2 1 2 2 2 1 1 1 1 2 1 3 9 7 7 9 7 2 3 5 8 12 12 13 12 7 6 4
25 21 18 16 15 13 11 10 7 6 10 3 3 2 2 8 3 4 3 4 2 3 3 1 1 3 2 2 2 1 2 1 2 3 2 1 2 4 8 11 12 14 15 16 16 16 14 11 11 10 7 5 4 5
29 26 24 20 17 15 12 10 7 5 1 2 4 4 3 4 3 6 2 1 3 2 2 2 0 1 1 2 3 0 2 1 3 1 1 1 2 5 6 9 10 13 14 15 15 13 10 9 5 4 4 3 3 1
28 28 27 23 20 20 19 20 19 12 3 3 4 4 3 3 5 3 4 1 2 0 1 1 2 1 1 3 3 2 3 3 1 1 1 2 4 4 4 6 6 6 6 9 9 7 6 3 1 3 2 2 1 1
22 26 27 25 21 17 13 13 13 7 5 4 4 4 2 2 2 1 1 2 1 1 1 2 2 2 1 3 1 2 1 1 3 2 1 1 1 5 3 4 4 4 5 5 5 4 3 2 2 3 2 2 1 3
20 23 24 26 19 15 11 10 10 4 3 3 3 3 3 2 2 2 2 2 2 1 1 2 2 2 2 2 2 2 2 1 2 3 0 1 4 4 5 3 4 4 3 3 3 3 2 2 3 4 3 3 3 3
7 11 12 25 18 14 8 6 5 3 3 3 3 3 1 2 1 2 2 2 1 1 1 2 2 2 1 2 2 2 3 3 2 2 2 2 4 3 4 3 3 2 3 3 3 3 3 3 3 5 6 5 4 3
15 4 20 20 15 8 13 4 3 5 3 3 2 2 2 3 3 2 1 1 1 1 1 2 3 3 2 2 1 1 3 3 2 1 2 4 5 5 5 3 2 3 4 4 3 5 4 5 3 4 8 8 7 7
4 8 19 21 10 5 3 4 3 4 5 3 2 2 2 2 2 2 2 2 2 1 1 2 3 2 3 4 2 3 2 1 1 2 2 3 3 4 3 2 4 4 5 6 5 6 6 7 7 6 8 9 9 7
7 16 23 20 6 3 3 4 4 3 3 2 1 2 2 2 1 1 1 2 1 1 3 2 4 2 2 2 2 4 2 2 2 2 3 4 5 6 6 6 6 7 7 6 7 6 6 7 7 7 7 8 8 8
12 20 25 15 8 3 4 3 2 4 2 1 2 2 2 1 2 1 2 2 2 2 3 2 2 2 2 2 1 2 1 2 3 3 3 4 4 6 7 5 5 5 5 5 5 6 6 5 6 8 8 9 9 10
11 10 14 10 4 5 3 2 3 2 2 2 1 2 2 2 2 2 2 1 3 1 1 0 0 1 3 3 3 2 4 3 2 2 3 4 3 4 5 5 5 5 6 6 6 6 7 6 7 7 7 7 7 9
3 11 3 5 4 4 4 3 2 0 2 2 1 2 2 1 1 1 2 2 1 1 1 2 1 2 4 6 7 7 5 8 7 6 8 5 3 3 6 6 5 5 5 5 5 4 5 6 7 7 7 8 9 9
7 6 3 5 6 5 1 1 3 2 2 2 1 2 1 1 1 2 1 2 1 2 1 2 6 9 9 9 9 11 9 8 6 5 5 5 5 4 5 6 5 4 4 5 6 5 5 7 7 7 7 8 8 8
3 3 4 3 4 0 3 3 2 3 1 1 2 2 2 2 1 2 1 1 2 1 2 5 5 6 6 9 7 7 6 4 5 6 5 3 5 5 5 4 4 4 4 5 4 5 6 5 7 7 7 9 9 9
5 5 4 4 3 4 5 4 4 3 1 2 1 1 2 2 2 2 2 0 2 3 3 3 4 5 5 5 5 5 7 4 3 5 5 5 3 2 3 3 3 3 4 4 6 6 6 5 4 6 9 7 10 12
5 3 3 1 2 2 2 1 1 3 2 1 2 1 1 2 2 1 1 3 2 3 3 3 4 5 6 5 4 3 4 4 2 4 4 4 4 3 2 2 3 3 4 1 2 5 7 6 7 9 9 10 11 10
3 3 2 1 0 1 2 1 2 2 1 2 2 1 1 1 1 2 1 4 2 3 4 5 4 5 6 6 5 4 3 3 3 5 5 4 4 4 3 2 2 3 5 4 3 3 5 7 8 8 8 9 7 5
2 2 1 2 1 1 1 1 1 1 1 2 2 2 1 1 2 2 3 3 4 5 6 6 7 6 6 5 3 3 4 3 6 5 3 3 2 1 2 1 6 9 7 6 4 4 4 5 7 8 8 8 3 3
1 2 2 3 2 2 2 2 2 2 2 0 2 2 2 2 2 2 3 2 3 4 4 4 4 3 5 5 4 4 3 3 4 4 2 3 3 3 2 3 3 4 6 4 9 7 8 6 5 4 5 4 4 3
3 0 2 1 1 1 1 1 1 1 2 2 3 3 2 2 3 3 2 3 4 4 2 2 1 2 2 2 1 3 3 2 2 3 2 2 3 3 3 3 4 4 5 3 4 5 8 4 4 4 5 4 4 4
2 1 1 0 1 1 1 2 1 0 2 3 3 3 3 2 2 3 3 2 3 2 3 3 3 2 3 3 2 2 2 2 1 2 2 3 3 3 3 3 6 6 2 3 3 3 3 3 3 4 5 5 6 5
3 3 2 2 2 3 4 3 3 3 3 2 2 2 2 3 2 2 2 2 3 3 1 1 2 2 3 2 1 1 3 3 3 3 4 3 3 7 9 9 7 4 3 3 3 3 3 3 3 3 3 5 5 5
3 3 3 3 4 5 3 3 5 3 3 2 3 1 1 3 3 2 1 2 3 3 3 3 3 2 3 4 3 2 3 5 10 10 8 7 7 8 7 6 5 2 2 3 3 3 4 3 3 4 4 5 5 5
Wind_Direction
123 123 122 128 134 144 133 118 122 110 100 92 85 106 140 158 165 139 122 90 123 97 18 27 35 130 119 108 134 183 73 337 41 72 122 202 144 219 139 178 176 170 156 194 118 75 278 168 71 166 218 248 186 181
124 122 123 125 128 127 115 118 112 101 88 78 63 81 129 153 164 142 140 306 109 81 129 53 86 49 17 157 126 10 155 160 167 90 80 114 150 160 131 240 52 231 189 181 187 216 236 228 229 267 180 204 213 195
118 119 122 122 120 115 114 106 98 94 77 73 59 68 107 138 151 147 149 20 59 89 32 53 1 326 32 9 180 119 300 153 125 116 147 143 147 132 163 237 173 247 163 207 91 257 233 239 260 227 208 219 202 205
109 118 122 119 115 110 106 95 89 87 77 67 58 62 83 92 86 71 76 349 74 100 107 288 329 21 331 353 90 81 125 73 95 69 101 135 144 182 205 194 163 204 147 186 261 279 275 264 236 234 203 197 192 164
113 110 114 112 108 107 98 90 89 84 74 54 64 76 80 85 90 89 89 34 42 118 148 228 321 1 352 33 67 68 99 106 114 84 101 201 140 116 60 66 260 190 194 168 232 237 199 249 296 182 190 203 175 140
113 114 113 103 103 98 91 88 86 80 68 62 70 79 80 79 112 69 50 13 13 41 98 107 295 8 351 28 53 51 48 75 83 125 190 194 334 103 145 201 258 212 234 208 255 282 220 287 301 191 170 147 110 104
106 105 101 104 112 97 90 87 81 73 63 60 76 78 73 74 66 72 126 285 340 9 83 65 356 344 339 21 38 20 22 58 86 96 75 120 99 97 137 212 297 275 280 290 240 147 273 220 264 151 118 100 96 88
97 99 101 105 106 100 93 86 80 76 69 76 78 82 85 92 112 45 1 2 340 91 66 109 276 15 1 27 34 355 29 29 26 102 66 107 61 73 245 298 326 332 321 330 313 261 317 65 81 71 101 111 99 89
87 97 100 102 93 96 99 96 87 83 66 77 77 77 59 38 49 295 321 329 30 88 111 79 135 212 3 51 48 26 25 61 300 88 79 101 111 224 352 327 318 312 304 299 2 60 69 84 90 91 92 85 88 91
72 85 99 107 107 108 114 107 97 71 53 51 39 41 34 334 320 318 4 28 18 351 37 84 120 113 49 24 40 61 3 72 167 267 14 99 249 54 4 344 336 330 326 5 89 73 84 86 89 83 72 68 99 128
65 70 82 96 107 105 101 91 49 355 40 38 56 80 242 318 48 32 52 65 360 35 25 93 137 123 349 106 136 88 129 57 215 260 184 18 334 29 9 38 36 43 53 58 68 71 73 74 77 78 90 123 186 224
58 61 65 70 83 90 77 49 41 53 50 115 124 92 41 34 47 79 47 2 49 182 5 99 82 76 88 102 97 40 118 98 234 184 108 203 66 69 61 60 56 65 69 71 69 72 73 82 109 173 202 221 214 187
59 55 54 55 61 69 69 66 73 97 118 51 49 57 53 330 72 149 150 198 134 66 358 55 55 60 41 48 77 107 163 212 91 173 177 56 100 66 38 63 53 43 75 104 117 139 151 165 209 244 256 358 35 293
58 53 46 40 43 57 68 61 44 37 58 56 39 54 28 68 52 99 74 90 111 112 91 74 65 71 353 60 90 148 104 80 201 201 217 77 58 121 70 64 51 31 25 60 57 55 67 48 349 326 308 272 247 295
60 49 39 19 26 37 63 83 64 46 66 68 35 72 59 106 54 48 61 90 22 83 81 81 59 64 37 91 31 89 81 141 130 185 100 47 103 113 93 70 57 45 23 36 28 28 355 348 353 327 318 302 277 275
48 46 11 358 9 25 43 57 39 72 60 82 62 88 58 84 77 47 48 62 9 32 21 45 94 76 60 114 84 196 118 200 204 157 139 153 164 163 148 180 248 341 29 24 18 355 345 348 326 319 320 314 313 279
59 45 335 351 3 22 32 72 51 49 73 56 48 37 89 72 77 78 76 62 15 77 105 106 86 181 76 63 69 48 164 156 135 159 166 177 172 189 193 198 295 4 16 10 3 12 3 356 353 12 1 346 340 325
51 323 354 360 10 27 37 39 77 71 65 36 71 26 38 29 73 55 56 17 62 88 76 184 127 85 152 145 225 200 189 162 117 112 58 27 72 110 123 82 40 36 28 29 29 25 21 22 25 10 353 342 333 332
29 15 4 4 23 82 61 23 49 80 55 66 66 31 58 62 34 24 35 19 85 119 103 43 77 157 222 214 153 160 179 180 170 71 69 43 67 74 64 56 52 49 47 38 37 31 23 25 14 357 345 343 336 332
8 14 358 3 22 70 61 12 49 83 68 90 53 41 69 45 320 1 8 26 53 58 38 67 197 228 179 262 219 160 145 125 112 93 54 39 42 66 58 54 47 36 51 39 40 29 15 10 10 359 351 338 331 329
17 343 352 18 33 52 84 4 59 75 115 73 101 52 37 6 22 15 23 352 46 76 19 320 310 309 81 58 33 54 48 61 79 127 144 117 48 64 60 46 45 48 47 30 21 17 16 3 347 343 337 327 329 321
341 351 29 9 55 31 66 5 82 132 67 119 83 111 109 100 46 34 322 32 78 306 18 2 55 99 73 57 54 53 65 68 64 66 57 71 54 51 55 41 44 45 42 29 11 1 349 345 339 335 325 321 319 315
359 19 29 24 57 43 321 349 63 28 115 158 83 84 105 106 30 5 15 357 84 37 351 53 64 84 98 91 77 58 50 70 69 62 67 78 75 58 73 65 52 45 24 13 354 347 340 331 331 328 321 320 319 316
21 50 38 44 61 71 337 11 11 35 71 146 126 159 151 124 51 66 229 186 83 36 53 104 107 103 89 73 62 52 36 62 75 54 30 68 76 64 59 70 73 57 28 348 339 327 325 318 318 322 320 319 319 317
67 346 51 26 45 50 33 8 355 44 346 328 126 194 171 84 107 179 234 325 42 31 31 57 75 75 96 98 93 64 30 25 81 91 51 59 72 47 49 42 29 57 15 354 346 334 324 318 312 316 318 318 320 323
58 333 73 228 324 25 198 41 270 222 184 256 228 95 54 106 124 210 45 16 46 31 21 46 83 87 66 57 85 58 18 349 43 90 78 70 74 97 93 34 343 316 358 23 330 319 315 314 318 320 319 321 322 328
39 327 294 245 184 193 349 275 215 129 204 222 182 163 157 197 108 68 74 11 47 28 32 20 52 86 105 96 75 40 13 21 68 99 108 98 92 93 120 123 311 290 330 327 307 255 287 309 312 312 310 310 307 323
192 144 57 280 308 217 257 322 305 273 324 18 75 56 50 92 99 23 26 43 62 68 63 50 51 70 82 76 57 44 45 58 78 72 62 56 61 46 51 353 324 314 313 306 283 292 280 286 297 301 306 306 311 329
37 324 67 2 339 37 42 3 356 13 345 15 106 103 91 63 12 347 7 22 50 69 72 77 55 65 73 63 50 41 42 68 80 51 24 292 333 309 339 337 310 309 315 310 314 315 310 304 313 312 321 323 323 333
298 55 94 85 88 64 260 16 304 306 51 72 92 93 78 56 6 342 23 47 66 77 51 56 17 80 121 101 69 6 4 42 123 139 172 245 239 277 305 298 303 303 319 332 325 322 334 350 342 4 5 4 3 358
277 348 329 36 116 301 301 290 290 345 99 77 40 80 97 130 30 26 45 36 77 77 73 45 38 26 92 72 109 74 343 290 320 290 252 264 274 271 274 279 301 313 330 352 349 338 331 347 0 357 3 1 352 357
19 30 2 337 313 336 15 40 7 14 354 105 80 90 50 61 35 324 348 56 45 49 2 117 108 277 222 224 214 226 210 284 303 284 287 281 272 289 298 309 329 347 5 358 352 347 353 349 340 350 345 345 342 345
13 26 34 25 346 350 348 68 23 3 29 51 19 103 99 124 152 245 350 64 149 172 201 220 234 240 228 210 204 242 267 298 305 301 290 291 302 308 317 325 335 350 5 350 344 346 342 345 335 338 339 344 344 346